Preview of NWS' New Version of Forecast
This preview is not operational and should not be used for support decisions.

Regional Weather Roundup (RWR)

Issued by National Weather Service (NWS)

                            
000
ASUS44 KMEG 181610
RWRTN 
TENNESSEE HOURLY STATE WEATHER ROUNDUP
NATIONAL WEATHER SERVICE MEMPHIS TN
1100 AM CDT MON MAR 18 2019

TNZ002-004-019-021-049-052-054-088>092-181700-
WEST TENNESSEE
  
CITY           SKY/WX    TMP DP  RH WIND       PRES   REMARKS
MEMPHIS INTL   CLOUDY    48  29  47 E8        30.43R                  
NWS MEMPHIS      N/A     47 N/A N/A MISG        N/A                   
JACKSON        FAIR      50  27  40 NE13      30.44S                  
DYERSBURG      FAIR      51  29  42 E10       30.45R                  
SOMERVILLE     PTSUNNY   48  30  49 VRB5      30.42S                  
COVINGTON      SUNNY     52  30  43 E10       30.43S                  
UNION CITY     SUNNY     50  27  40 N10       30.44R                  
PARIS          SUNNY     50  27  40 NE10G17   30.43R                  
HUNTINGDON     SUNNY     50  27  40 NE8G15    30.43R                  
LEXINGTON      SUNNY     50  25  37 N8        30.42S                  
SELMER         MOSUNNY   48  25  40 E10       30.42R                  
SAVANNAH       MOSUNNY   50  25  37 E10G16    30.42S                  
$$

TNZ008-025-027-028-033-062-065-066-181700-
NORTH MIDDLE TENNESSEE
  
CITY           SKY/WX    TMP DP  RH WIND       PRES   REMARKS
NASHVILLE      FAIR      48  20  32 E8        30.43R                  
DICKSON        SUNNY     45  21  39 N10G17    30.41R                  
CLARKSVILLE    FAIR      47  22  37 NE5       30.43R                  
LEBANON        SUNNY     46  23  39 N12       30.40S                  
SMYRNA         FAIR      48  24  39 NE10      30.43S                  
MURFREESBORO   SUNNY     46  21  36 N10       30.40R                  
COOKEVILLE     SUNNY     45  21  39 N8G17     30.38S                  
LIVINGSTON     SUNNY     41  21  45 N7G16     30.36S                  
GALLATIN       SUNNY     46  23  39 VRB5G15   30.44S                  
CROSSVILLE     FAIR      42  17  36 N10G18    30.35R                  
ROCKWOOD       SUNNY     43  18  36 N13       30.33S                  
$$

TNZ061-075-076-078-094-096-097-181700-
SOUTH MIDDLE TENNESSEE
  
CITY           SKY/WX    TMP DP  RH WIND       PRES   REMARKS
LAWRENCEBURG   SUNNY     48  23  37 N15G22    30.40R                  
LEWISBURG      SUNNY     48  21  34 N7G18     30.41R                  
FAYETTEVILLE   SUNNY     48  23  37 N14       30.38R                  
TULLAHOMA      SUNNY     46  21  36 VRB5G13   30.38R                  
WINCHESTER     SUNNY     46  19  34 N15G22    30.37S                  
MCMINNVILLE    SUNNY     46  21  36 NE7G16    30.39R                  
COLUMBIA       SUNNY     48  19  32 N12       30.41R                  
SHELBYVILLE    SUNNY     46  23  39 N13       30.40S                  
$$

TNZ017-018-042-046-047-181700-
NORTHEAST TENNESSEE
  
CITY           SKY/WX    TMP DP  RH WIND       PRES   REMARKS
TRI CITIES     FAIR      46  21  37 NW9       30.29S                  
ELIZABETHTON   PTSUNNY   45  25  45 N8G15     30.27F                  
GREENEVILLE    MOSUNNY   43  21  42 NW10      30.29S                  
$$

TNZ012-013-036-069-073-074-181700-
CENTRAL EAST TENNESSEE
  
CITY           SKY/WX    TMP DP  RH WIND       PRES   REMARKS
KNOXVILLE      FAIR      46  16  30 N6        30.33S                  
OAK RIDGE      FAIR      48  20  32 E6        30.36R                  
DOWNTOWN KNOXV SUNNY     48  18  29 NW7       30.35S                  
GATLINBURG     SUNNY     46  21  36 NW9       30.33R                  
MORRISTOWN     MOSUNNY   45  23  42 NE10      30.31S                  
JACKSBORO      SUNNY     45  16  31 VRB5      30.37F                  
$$

TNZ083-085-099-181700-
SOUTHEAST TENNESSEE
  
CITY           SKY/WX    TMP DP  RH WIND       PRES   REMARKS
CHATTANOOGA    FAIR      49  27  42 N8G17     30.37R                  
DAYTON         SUNNY     48  25  40 VRB5G12   30.36R                  
$$

SKY/WX REPORTED AS FAIR MEANS FEW OR NO CLOUDS BELOW
12 THOUSAND FEET.